GW6230 Weather Reports


Display with metric or nautical units.
time (UTC)temp
F
wind
direction
speed
MPH
gust
MPH
rain 1hr
in
rain 24hr
in
rain mn
in
humidity
%
barometer
mb
20260504050404 44 90 0.0 0.0 0.00 0.00 0.00 85 1015.8
20260504045900 44 90 0.0 0.0 0.00 0.00 0.00 84 1015.9
20260504045356 44 90 0.0 2.0 0.00 0.00 0.00 84 1015.9
20260504044853 44 66 0.0 1.0 0.00 0.00 0.00 84 1016.0
20260504044350 44 82 0.0 1.0 0.00 0.00 0.00 84 1015.8
20260504043848 44 84 1.0 2.0 0.00 0.00 0.00 83 1015.8
20260504043344 44 75 0.0 2.0 0.00 0.00 0.00 83 1015.9
20260504042842 44 74 0.0 0.0 0.00 0.00 0.00 83 1015.8
20260504042338 44 74 0.0 0.0 0.00 0.00 0.00 82 1015.9
20260504041834 44 90 0.0 0.0 0.00 0.00 0.00 81 1015.9
20260504041331 44 90 0.0 0.0 0.00 0.00 0.00 82 1015.9
20260504040827 43 90 0.0 0.0 0.00 0.00 0.00 80 1015.7
20260504040325 43 97 0.0 1.0 0.00 0.00 0.00 81 1015.6
20260504035820 43 90 0.0 1.0 0.00 0.00 0.00 81 1015.8
20260504035318 43 103 1.0 1.0 0.00 0.00 0.00 83 1015.9
20260504034815 42 74 0.0 0.0 0.00 0.00 0.00 83 1015.8
20260504034313 42 74 0.0 0.0 0.00 0.00 0.00 83 1015.9
20260504033810 42 74 0.0 0.0 0.00 0.00 0.00 83 1015.9
20260504033307 41 74 0.0 0.0 0.00 0.00 0.00 82 1016.0
20260504032803 41 75 0.0 0.0 0.00 0.00 0.00 83 1016.0
20260504032301 41 66 0.0 0.0 0.00 0.00 0.00 84 1015.9
20260504031757 41 66 0.0 0.0 0.00 0.00 0.00 85 1016.0
20260504031255 41 66 0.0 0.0 0.00 0.00 0.00 81 1015.8
20260504030751 41 66 0.0 0.0 0.00 0.00 0.00 83 1015.9
20260504030248 41 66 0.0 0.0 0.00 0.00 0.00 83 1016.1
20260504025745 41 66 0.0 0.0 0.00 0.00 0.00 82 1016.1
20260504025242 41 66 0.0 1.0 0.00 0.00 0.00 80 1016.2
20260504024738 42 157 0.0 0.0 0.00 0.00 0.00 81 1016.1
20260504024235 42 157 0.0 0.0 0.00 0.00 0.00 81 1016.1
20260504023732 42 157 0.0 0.0 0.00 0.00 0.00 81 1016.2
20260504023228 43 74 0.0 0.0 0.00 0.00 0.00 80 1016.2
20260504022724 43 74 0.0 0.0 0.00 0.00 0.00 78 1016.1
20260504022220 43 74 0.0 0.0 0.00 0.00 0.00 79 1016.0
20260504021718 43 74 0.0 0.0 0.00 0.00 0.00 82 1016.1
20260504021215 44 74 0.0 0.0 0.00 0.00 0.00 79 1015.9
20260504020711 44 74 0.0 0.0 0.00 0.00 0.00 77 1016.0
20260504020207 45 74 0.0 0.0 0.00 0.00 0.00 77 1015.8
20260504015704 45 74 0.0 0.0 0.00 0.00 0.00 74 1015.9
20260504015201 46 74 0.0 0.0 0.00 0.00 0.00 70 1016.0
20260504014656 46 74 0.0 0.0 0.00 0.00 0.00 72 1015.9
20260504014154 46 74 0.0 0.0 0.00 0.00 0.00 68 1015.9
20260504013652 47 74 0.0 0.0 0.00 0.00 0.00 69 1015.9
20260504013148 47 74 0.0 0.0 0.00 0.00 0.00 68 1015.8
20260504012645 47 74 0.0 0.0 0.00 0.00 0.00 66 1015.9
20260504012143 48 74 0.0 0.0 0.00 0.00 0.00 68 1015.8
20260504011640 48 74 0.0 0.0 0.00 0.00 0.00 63 1015.7
20260504011137 49 243 0.0 0.0 0.00 0.00 0.00 65 1015.6
20260504010632 49 278 0.0 0.0 0.00 0.00 0.00 63 1016.2
20260504010128 48 278 0.0 0.0 0.00 0.00 0.00 63 1015.8
20260504005625 49 278 0.0 1.0 0.00 0.00 0.00 67 1015.7
20260504005122 49 165 0.0 0.0 0.00 0.00 0.00 63 1015.6
20260504004620 50 249 0.0 0.0 0.00 0.00 0.00 61 1015.7
20260504004117 50 209 0.0 0.0 0.00 0.00 0.00 59 1015.7
20260504003613 51 188 0.0 0.0 0.00 0.00 0.00 55 1015.6
20260504003110 51 262 0.0 1.0 0.00 0.00 0.00 55 1015.4
20260504002607 51 81 0.0 0.0 0.00 0.00 0.00 54 1015.6
20260504002104 52 279 0.0 0.0 0.00 0.00 0.00 54 1015.3
20260504001602 52 261 0.0 0.0 0.00 0.00 0.00 51 1015.4
20260504001057 52 261 0.0 1.0 0.00 0.00 0.00 53 1015.6
20260504000555 53 99 0.0 0.0 0.00 0.00 0.00 52 1015.6
20260504000053 54 249 0.0 1.0 0.00 0.00 0.00 49 1015.6
20260503235550 54 257 0.0 0.0 0.00 0.00 0.00 50 1015.6
20260503235047 54 279 0.0 0.0 0.00 0.00 0.00 48 1015.4
20260503234544 55 331 0.0 0.0 0.00 0.00 0.00 46 1015.6
20260503234042 56 221 0.0 2.0 0.00 0.00 0.00 45 1015.4
20260503233538 55 191 0.0 2.0 0.00 0.00 0.00 42 1015.4
20260503233035 56 234 0.0 1.0 0.00 0.00 0.00 42 1015.7
20260503232532 56 40 0.0 2.0 0.00 0.00 0.00 42 1015.8
20260503232029 56 246 2.0 7.0 0.00 0.00 0.00 41 1015.6
20260503231527 57 255 2.0 5.0 0.00 0.00 0.00 38 1015.4
20260503231024 57 257 3.0 4.0 0.00 0.00 0.00 40 1015.6
20260503230520 57 259 3.0 3.0 0.00 0.00 0.00 38 1015.8
20260503230018 57 227 3.0 4.0 0.00 0.00 0.00 39 1015.4
20260503225514 57 326 4.0 6.0 0.00 0.00 0.00 38 1015.2
20260503225009 58 320 2.0 7.0 0.00 0.00 0.00 40 1015.4
20260503224507 58 228 6.0 6.0 0.00 0.00 0.00 36 1015.6
20260503224005 59 186 0.0 5.0 0.00 0.00 0.00 39 1015.7
20260503223503 59 248 2.0 7.0 0.00 0.00 0.00 36 1015.6
20260503222958 59 328 2.0 6.0 0.00 0.00 0.00 35 1015.6
20260503222457 60 274 0.0 10.0 0.00 0.00 0.00 34 1015.6
20260503221955 61 268 4.0 9.0 0.00 0.00 0.00 35 1015.6
20260503221453 62 315 3.0 5.0 0.00 0.00 0.00 36 1015.8
20260503220949 62 70 0.0 5.0 0.00 0.00 0.00 37 1015.7
20260503220445 62 282 2.0 5.0 0.00 0.00 0.00 32 1015.7
20260503215943 62 126 1.0 8.0 0.00 0.00 0.00 33 1015.9
20260503215440 62 270 3.0 5.0 0.00 0.00 0.00 34 1015.9
20260503214937 62 10 0.0 5.0 0.00 0.00 0.00 35 1015.7
20260503214435 62 276 1.0 3.0 0.00 0.00 0.00 37 1015.6
20260503213932 61 275 6.0 6.0 0.00 0.00 0.00 36 1015.7
20260503213430 61 241 0.0 5.0 0.00 0.00 0.00 37 1015.6
20260503212926 62 75 0.0 5.0 0.00 0.00 0.00 32 1015.6
20260503212424 62 137 4.0 6.0 0.00 0.00 0.00 36 1015.7
20260503211921 62 261 2.0 10.0 0.00 0.00 0.00 38 1015.7
20260503211418 62 272 5.0 7.0 0.00 0.00 0.00 37 1015.7
20260503210913 62 237 5.0 10.0 0.00 0.00 0.00 38 1015.8
20260503210410 61 231 2.0 8.0 0.00 0.00 0.00 34 1015.7
20260503205904 62 267 3.0 6.0 0.00 0.00 0.00 35 1015.7
20260503205401 60 252 2.0 6.0 0.00 0.00 0.00 37 1015.9
20260503204858 61 292 2.0 15.0 0.00 0.00 0.00 36 1015.9
20260503204355 62 273 4.0 6.0 0.00 0.00 0.00 32 1015.9
20260503203852 61 283 4.0 7.0 0.00 0.00 0.00 37 1015.9
20260503203349 61 254 5.0 13.0 0.00 0.00 0.00 40 1016.0
20260503202846 60 270 2.0 13.0 0.00 0.00 0.00 37 1016.2
20260503202345 61 251 6.0 8.0 0.00 0.00 0.00 35 1016.0
20260503201843 62 146 3.0 7.0 0.00 0.00 0.00 35 1016.2
20260503201339 62 303 2.0 6.0 0.00 0.00 0.00 37 1016.5
20260503200837 60 266 2.0 9.0 0.00 0.00 0.00 37 1016.4
20260503200332 60 246 0.0 7.0 0.00 0.00 0.00 38 1016.5
20260503195830 62 56 2.0 4.0 0.00 0.00 0.00 38 1016.5
20260503195326 62 266 7.0 8.0 0.00 0.00 0.00 37 1016.8
20260503194824 61 330 2.0 6.0 0.00 0.00 0.00 37 1016.7
20260503194319 58 194 0.0 4.0 0.00 0.00 0.00 37 1016.9
20260503193816 60 125 3.0 4.0 0.00 0.00 0.00 33 1016.9
20260503193312 61 21 3.0 10.0 0.00 0.00 0.00 36 1017.1
20260503192808 61 254 2.0 10.0 0.00 0.00 0.00 33 1017.3
20260503192305 60 263 3.0 5.0 0.00 0.00 0.00 36 1017.0
20260503191800 59 242 3.0 7.0 0.00 0.00 0.00 35 1017.5
20260503191257 58 209 2.0 5.0 0.00 0.00 0.00 39 1017.2
20260503190754 60 270 6.0 8.0 0.00 0.00 0.00 36 1017.4
20260503190250 57 227 3.0 10.0 0.00 0.00 0.00 37 1017.5
20260503185748 60 273 7.0 9.0 0.00 0.00 0.00 39 1017.5
20260503185243 60 279 5.0 10.0 0.00 0.00 0.00 35 1017.5
20260503184738 61 255 3.0 8.0 0.00 0.00 0.00 37 1017.5
20260503184235 60 203 0.0 8.0 0.00 0.00 0.00 37 1017.4
20260503183731 62 233 0.0 7.0 0.00 0.00 0.00 38 1017.7
20260503183229 60 115 2.0 6.0 0.00 0.00 0.00 39 1017.6
20260503182726 59 150 4.0 9.0 0.00 0.00 0.00 37 1017.8
20260503182225 59 277 6.0 9.0 0.00 0.00 0.00 40 1017.9
20260503181721 59 256 5.0 5.0 0.00 0.00 0.00 42 1017.9
20260503181218 58 53 2.0 6.0 0.00 0.00 0.00 37 1018.0
20260503180714 58 274 5.0 5.0 0.00 0.00 0.00 39 1017.8
20260503180213 58 261 6.0 9.0 0.00 0.00 0.00 35 1018.1
20260503175710 59 330 5.0 15.0 0.00 0.00 0.00 39 1018.1
20260503175208 59 63 5.0 7.0 0.00 0.00 0.00 45 1018.1
20260503174703 59 254 1.0 10.0 0.00 0.00 0.00 44 1018.0
20260503174201 57 172 3.0 6.0 0.00 0.00 0.00 38 1018.3
20260503173656 58 264 0.0 5.0 0.00 0.00 0.00 40 1018.4
20260503173153 59 270 5.0 6.0 0.00 0.00 0.00 38 1018.4
20260503172650 58 270 3.0 8.0 0.00 0.00 0.00 40 1018.5
20260503172147 58 77 1.0 6.0 0.00 0.00 0.00 40 1018.3
20260503171643 56 225 3.0 6.0 0.00 0.00 0.00 45 1018.6
20260503171140 57 301 0.0 8.0 0.00 0.00 0.00 38 1018.8
20260503170637 57 84 1.0 9.0 0.00 0.00 0.00 40 1018.8
20260503170134 56 286 4.0 7.0 0.00 0.00 0.00 43 1018.7
20260503150525 53 210 3.0 5.0 0.00 0.00 0.00 46 1020.1
20260503131419 46 266 5.0 8.0 0.00 0.00 0.00 67 1020.2
20260503130915 47 139 6.0 9.0 0.00 0.00 0.00 68 1020.0
20260503130413 46 78 1.0 5.0 0.00 0.00 0.00 70 1020.4
20260503110817 33 102 1.0 2.0 0.00 0.00 0.00 97 1019.5
20260503110314 33 90 0.0 2.0 0.00 0.00 0.00 97 1019.6
20260503100240 32 90 1.0 1.0 0.00 0.00 0.00 96 1018.7
20260503090159 33 105 1.0 2.0 0.00 0.00 0.00 96 1018.5
20260503081636 33 82 0.0 0.0 0.00 0.00 0.00 95 1018.4
20260503081132 32 82 0.0 0.0 0.00 0.00 0.00 95 1018.4
20260503080628 32 69 0.0 2.0 0.00 0.00 0.00 95 1018.4
20260503080125 32 90 0.0 0.0 0.00 0.00 0.00 94 1018.3
20260503072602 34 82 0.0 0.0 0.00 0.00 0.00 92 1018.0
20260503072059 34 90 0.0 0.0 0.00 0.00 0.00 92 1017.9
20260503071556 34 90 0.0 0.0 0.00 0.00 0.00 91 1018.0
20260503071053 35 90 0.0 0.0 0.00 0.00 0.00 91 1017.7